EW7643 Weather Reports


time (UTC)temp
C
wind
direction
speed
KPH
gust
KPH
rain 1hr
cm
rain 24hr
cm
rain mn
cm
humidity
%
barometer
mb
20260506213026 30 84 0.0 4.8 0.00 0.00 0.00 75 1008.7
20260506211526 30 115 0.0 0.0 0.00 0.00 0.00 75 1008.7
20260506210018 29 115 0.0 0.0 0.00 0.00 0.00 76 1008.6
20260506204524 29 113 0.0 6.4 0.00 0.00 0.00 76 1008.8
20260506203026 28 14 0.0 1.6 0.00 0.00 0.00 77 1009.0
20260506201528 28 123 0.0 0.0 0.00 0.00 0.00 79 1009.2
20260506200029 28 114 0.0 6.4 0.00 0.00 0.00 79 1009.4
20260506194531 28 111 0.0 0.0 0.00 0.00 0.00 79 1009.4
20260506193005 28 112 0.0 0.0 0.00 0.00 0.00 78 1009.5
20260506191507 28 105 0.0 0.0 0.00 0.00 0.00 78 1009.6
20260506190014 28 114 0.0 0.0 0.00 0.00 0.00 78 1009.9
20260506184524 28 113 0.0 0.0 0.00 0.00 0.00 79 1010.2
20260506183023 28 117 0.0 0.0 0.00 0.00 0.00 79 1010.2
20260506181506 28 117 0.0 0.0 0.00 0.00 0.00 78 1010.4
20260506180010 28 94 0.0 0.0 0.00 0.00 0.00 79 1010.7
20260506174513 28 211 0.0 0.0 0.00 0.00 0.00 79 1010.7
20260506173022 28 115 0.0 0.0 0.00 0.00 0.00 79 1010.9
20260506171526 27 117 0.0 0.0 0.00 0.00 0.00 80 1011.0
20260506170008 27 105 0.0 0.0 0.00 0.00 0.00 79 1011.1
20260506164515 26 124 0.0 0.0 0.00 0.00 0.00 78 1011.1
20260506163020 26 124 0.0 0.0 0.00 0.00 0.00 77 1011.0
20260506161522 26 120 0.0 0.0 0.00 0.00 0.00 76 1010.9
20260506160036 26 105 0.0 0.0 0.00 0.00 0.00 77 1010.9
20260506154516 26 117 0.0 0.0 0.00 0.00 0.00 75 1010.7
20260506153014 25 106 0.0 0.0 0.00 0.00 0.00 74 1010.4
20260506151521 25 109 0.0 0.0 0.00 0.00 0.00 74 1010.3
20260506150026 25 79 0.0 0.0 0.00 0.00 0.00 73 1010.1
20260506144527 25 122 0.0 0.0 0.00 0.00 0.00 72 1009.7
20260506143013 25 127 0.0 0.0 0.00 0.00 0.00 72 1009.8
20260506141515 25 115 0.0 0.0 0.00 0.00 0.00 72 1010.1
20260506140018 25 120 0.0 0.0 0.00 0.00 0.00 69 1010.1
20260506134525 25 120 0.0 0.0 0.00 0.00 0.00 66 1010.0
20260506133027 25 119 0.0 0.0 0.00 0.00 0.00 66 1010.1
20260506131529 24 120 0.0 0.0 0.00 0.00 0.00 65 1010.1
20260506130035 24 120 0.0 0.0 0.00 0.00 0.00 65 1010.2
20260506124532 -17 0.0 0.0 0.00 0.03 0.00 1010.0
20260506123031 -17 0.0 0.0 0.00 0.03 0.00 1009.9
20260506121530 -17 0.0 0.0 0.00 0.03 0.00 1009.8
20260506120028 -17 0.0 0.0 0.00 0.03 0.00 1009.6
20260506114530 -17 0.0 0.0 0.00 0.03 0.00 1009.4
20260506113030 -17 0.0 0.0 0.00 0.03 0.00 1009.2
20260506111528 -17 0.0 0.0 0.00 0.03 0.00 1009.1
20260506110028 -17 0.0 0.0 0.00 0.03 0.00 1009.1
20260506104532 -17 0.0 0.0 0.00 0.03 0.00 1009.1
20260506103038 -17 0.0 0.0 0.00 0.03 0.00 1009.1
20260506101531 -17 0.0 0.0 0.00 0.03 0.00 1009.1
20260506100036 -17 0.0 0.0 0.00 0.03 0.00 1008.9
20260506094540 -17 0.0 0.0 0.00 0.03 0.00 1008.8
20260506093034 23 0.0 0.0 0.00 0.03 0.00 68 1008.9
20260506091516 23 55 0.0 0.0 0.00 0.03 0.00 69 1008.9
20260506090023 23 55 0.0 0.0 0.00 0.03 0.00 69 1009.0
20260506084525 23 55 0.0 0.0 0.00 0.03 0.00 69 1009.2
20260506083011 23 108 0.0 0.0 0.00 0.03 0.00 70 1009.2
20260506081512 23 105 0.0 0.0 0.00 0.03 0.00 70 1009.2
20260506073025 24 115 0.0 0.0 0.00 0.03 0.00 72 1009.7
20260506071511 24 117 0.0 0.0 0.00 0.03 0.00 72 1009.8
20260506061527 24 108 0.0 0.0 0.00 0.03 0.00 74 1009.8
20260506044513 24 110 0.0 0.0 0.00 0.03 0.03 75 1009.9
20260506043020 24 109 0.0 11.3 0.00 0.03 0.03 75 1009.8
20260506041522 24 117 0.0 3.2 0.00 0.03 0.03 75 1009.8
20260506040027 24 120 0.0 0.0 0.00 0.03 0.03 75 1009.7
20260506034526 24 116 0.0 3.2 0.00 0.03 0.03 75 1009.7
20260506033017 24 108 0.0 0.0 0.00 0.03 0.03 75 1009.5
20260506031518 24 171 0.0 0.0 0.00 0.03 0.03 75 1009.5
20260506030030 24 115 0.0 1.6 0.00 0.03 0.03 75 1009.3
20260506024540 24 119 0.0 0.0 0.00 0.03 0.03 75 1009.4
20260506023030 24 102 0.0 0.0 0.00 0.03 0.03 76 1009.0
20260506021522 24 119 0.0 0.0 0.00 0.03 0.03 76 1008.7
20260506020022 24 75 0.0 0.0 0.00 0.03 0.03 77 1008.5
20260506014528 25 110 0.0 0.0 0.00 0.03 0.03 78 1008.3
20260506013025 25 111 0.0 0.0 0.00 0.03 0.03 79 1008.2
20260506011528 25 129 0.0 3.2 0.00 0.03 0.03 79 1007.9
20260506010021 25 119 0.0 0.0 0.00 0.03 0.03 80 1007.8
20260506004524 25 108 0.0 0.0 0.00 0.03 0.03 80 1007.6
20260506003033 25 84 0.0 0.0 0.00 0.03 0.03 80 1007.5
20260506001534 25 117 0.0 0.0 0.00 0.03 0.03 81 1007.5
20260506000020 25 116 0.0 0.0 0.00 0.03 0.03 81 1007.6
20260505234527 26 173 0.0 8.0 0.00 0.03 0.03 81 1007.4
20260505233003 26 72 1.6 12.9 0.00 0.03 0.03 80 1007.6
20260505231509 26 117 0.0 0.0 0.00 0.03 0.03 80 1007.6
20260505230025 26 106 0.0 0.0 0.00 0.03 0.03 79 1007.5
20260505224516 26 115 0.0 0.0 0.00 0.03 0.03 80 1007.4
20260505223021 26 126 0.0 0.0 0.00 0.03 0.03 80 1007.6
20260505221505 26 108 0.0 0.0 0.00 0.03 0.03 80 1007.6
20260505220008 26 120 0.0 6.4 0.00 0.03 0.03 80 1007.7
20260505214516 26 133 0.0 6.4 0.00 0.03 0.03 80 1007.9